This is the latest recevied weather packets stored in our database for station/object KE8WMS. If no packets are shown the sender has not sent any weather packets the latest 10 day(s).
| Time | Temp. | Humidity | Pressure | Rain* | Wind** | Luminosity | Snow |
|---|---|---|---|---|---|---|---|
| 1788019734 | 26.11° C | 49% | 1019.5 hPa | 0 mm | - | 663 W/m² | - |
| 1788019433 | 26.67° C | 48% | 1019.5 hPa | 0 mm | - | 658 W/m² | - |
| 1788019130 | 26.67° C | 48% | 1019.5 hPa | 0 mm | - | 651 W/m² | - |
| 1788018825 | 26.67° C | 47% | 1019.4 hPa | 0 mm | - | 646 W/m² | - |
| 1788018520 | 26.67° C | 47% | 1019.5 hPa | 0 mm | - | 651 W/m² | - |
| 1788018219 | 26.67° C | 49% | 1019.6 hPa | 0 mm | - | 524 W/m² | - |
| 1788017916 | 26.67° C | 45% | 1019.8 hPa | 0 mm | - | 645 W/m² | - |
| 1788017612 | 26.11° C | 47% | 1019.6 hPa | 0 mm | - | 624 W/m² | - |
| 1788017308 | 26.11° C | 46% | 1019.6 hPa | 0 mm | - | 612 W/m² | - |
| 1788017005 | 26.11° C | 46% | 1019.4 hPa | 0 mm | - | 602 W/m² | - |
| 1788016704 | 26.11° C | 48% | 1019.7 hPa | 0 mm | - | 591 W/m² | - |
| 1788016402 | 25.56° C | 47% | 1019.5 hPa | 0 mm | - | 579 W/m² | - |
| 1788016102 | 25.56° C | 51% | 1019.7 hPa | 0 mm | - | 571 W/m² | - |
| 1788015800 | 25° C | 53% | 1019.9 hPa | 0 mm | - | 560 W/m² | - |
| 1788015496 | 25° C | 55% | 1019.7 hPa | 0 mm | - | 550 W/m² | - |
| 1788015191 | 24.44° C | 52% | 1019.7 hPa | 0 mm | - | 540 W/m² | - |
| 1788014889 | 24.44° C | 53% | 1019.7 hPa | 0 mm | - | 529 W/m² | - |
| 1788014584 | 24.44° C | 53% | 1019.8 hPa | 0 mm | - | 525 W/m² | - |
| 1788014279 | 23.89° C | 54% | 1019.7 hPa | 0 mm | - | 506 W/m² | - |
| 1788013974 | 23.89° C | 57% | 1019.9 hPa | 0 mm | - | 493 W/m² | - |
| 1788013669 | 23.33° C | 53% | 1019.8 hPa | 0 mm | - | 481 W/m² | - |
| 1788013364 | 23.89° C | 56% | 1019.9 hPa | 0 mm | - | 468 W/m² | - |
| 1788013063 | 23.33° C | 59% | 1020 hPa | 0 mm | - | 454 W/m² | - |
| 1788012762 | 22.78° C | 60% | 1020 hPa | 0 mm | - | 442 W/m² | - |
| 1788012458 | 22.78° C | 58% | 1020.2 hPa | 0 mm | - | 430 W/m² | - |
* Rain latest hour (hover to see other rain measurements)
** Current wind speed in m/s (hover to see current wind gust speed)